Location: Newark
(46.7636°N, 1.8358°W)
Time: 12:15:44
(UTC+00:00)

Vanguard 2 Rocket - Pass Details

Date: 14 October 2019
Orbit: 554 x 3326 km, 32.9° (Epoch: 17 November)

Event Time Altitude Azimuth Distance (km) Brightness Sun altitude
Rises 09:33:08 0° 212° (SSW) 6,958 11.6 26.9°
Reaches altitude 10° 09:38:24 10° 204° (SSW) 6,140 11.6 27.5°
Maximum altitude 09:54:38 32° 150° (SSE) 4,574 13.6 29.1°
Drops below altitude 10° 10:09:06 10° 96° (E) 5,520 11.5 30.4°
Sets 10:13:26 0° 87° (E) 6,202 11.5 30.8°
